This is the latest recevied weather packets stored in our database for station/object AD8IZ-13. If no packets are shown the sender has not sent any weather packets the latest 10 day(s).
| Time | Temp. | Humidity | Pressure | Rain* | Wind** | Luminosity | Snow |
|---|---|---|---|---|---|---|---|
| 1777680922 | 8.33° C | 77% | 1015.4 hPa | 0 mm | - | 9 W/m² | - |
| 1777680318 | 8.33° C | 77% | 1015.2 hPa | 0 mm | - | 16 W/m² | - |
| 1777679718 | 8.89° C | 75% | 1015 hPa | 0 mm | - | 25 W/m² | - |
| 1777679118 | 8.89° C | 76% | 1014.8 hPa | 0 mm | - | 45 W/m² | - |
| 1777678519 | 8.89° C | 76% | 1014.8 hPa | 0 mm | - | 49 W/m² | - |
| 1777677918 | 8.89° C | 75% | 1014.7 hPa | 0 mm | - | 58 W/m² | - |
| 1777677319 | 8.89° C | 75% | 1014.6 hPa | 0 mm | - | 75 W/m² | - |
| 1777676720 | 8.89° C | 74% | 1014.6 hPa | 0 mm | - | 57 W/m² | - |
| 1777676120 | 9.44° C | 75% | 1014.6 hPa | 0 mm | - | 65 W/m² | - |
| 1777675524 | 9.44° C | 74% | 1014.6 hPa | 0 mm | - | 81 W/m² | - |
| 1777674920 | 10° C | 74% | 1014.5 hPa | 0 mm | - | 89 W/m² | - |
| 1777674321 | 10° C | 74% | 1014.5 hPa | 0 mm | - | 254 W/m² | - |
| 1777673717 | 9.44° C | 77% | 1014.6 hPa | 0 mm | - | 304 W/m² | - |
| 1777673118 | 9.44° C | 78% | 1014.9 hPa | 0 mm | - | 326 W/m² | - |
| 1777672521 | 8.89° C | 79% | 1014.9 hPa | 0 mm | - | 247 W/m² | - |
| 1777671922 | 8.33° C | 80% | 1015 hPa | 0 mm | - | 268 W/m² | - |
| 1777671318 | 8.89° C | 78% | 1014.7 hPa | 0 mm | - | 31 W/m² | - |
| 1777670720 | 8.89° C | 78% | 1014.4 hPa | 0 mm | - | 244 W/m² | - |
| 1777670119 | 8.33° C | 79% | 1014.2 hPa | 0 mm | - | 177 W/m² | - |
| 1777669518 | 8.33° C | 79% | 1014 hPa | 0 mm | - | 122 W/m² | - |
| 1777668919 | 8.89° C | 80% | 1013.9 hPa | 0 mm | - | 103 W/m² | - |
| 1777668320 | 8.89° C | 79% | 1013.8 hPa | 0 mm | - | 146 W/m² | - |
| 1777667719 | 8.89° C | 78% | 1013.8 hPa | 0 mm | - | 270 W/m² | - |
| 1777667120 | 8.89° C | 79% | 1013.7 hPa | 0 mm | - | 239 W/m² | - |
| 1777666519 | 9.44° C | 78% | 1013.7 hPa | 0 mm | - | 98 W/m² | - |
* Rain latest hour (hover to see other rain measurements)
** Current wind speed in m/s (hover to see current wind gust speed)